Volver al catálogo

FENGYUN 1C DEB

ActivoSSO
NORAD 30247·DEBRIS·🇨🇳 China

Lanzado May 10, 1999 desde Taiyuan Satellite Launch Center

Loading…

Próximos Pases (próximas 24 horas)

TLE

ActualizadoSource: Space-Track

Época: Sep 14, 2026, 00:13 UTC

1 30247U 99025XG  26257.00970999  .00007521  00000-0  10835-2 0  9990
2 30247  98.2632 170.3748 0168693 208.6811 283.9634 14.67307727 13099

Sigue FENGYUN 1C DEB en tiempo real con AllMySat

Download on the App Store